Bartlesville, OK

4:15 PM CDT on September 25, 2016 (GMT -0500)
Bartlesville Municipal

Weather History for KBVO - July, 2013

Change the Weather History Date:

Thursday, July 25, 2013

  Actual Average Record
Temperature  
Mean Temperature 76 °F -  
Max Temperature 88 °F 95 °F 107 °F (1977)
Min Temperature 66 °F 69 °F 58 °F (1991)
Cooling Degree Days 12    
Growing Degree Days 26 (Base 50)    
Moisture  
Dew Point 69 °F    
Average Humidity 82    
Maximum Humidity 100    
Minimum Humidity 53    
Precipitation  
Precipitation 0.01 in - - ()
Sea Level Pressure  
Sea Level Pressure 30.03 in    
Wind  
Wind Speed 2 mph (SSE)    
Max Wind Speed 8 mph    
Max Gust Speed 16 mph    
Visibility 8 miles    
Events      
Averages and records for this station are not official NWS values.
T = Trace of Precipitation, MM = Missing Value Source: NWS Daily Summary

Daily Weather History Graph

Daily Weather History Graph

Search for Another Location

Airport or City:

Trip Planner

Search our weather history database for the weather conditions in past years. The results will help you decide how hot, cold, wet, or windy it might be!

Date:

Astronomy

Jul. 25, 2013 Rise Set
Actual Time 6:24 AM CDT 8:36 PM CDT
Civil Twilight 5:55 AM CDT 9:05 PM CDT
Nautical Twilight 5:19 AM CDT 9:40 PM CDT
Astronomical Twilight 4:40 AM CDT 10:19 PM CDT
Moon 10:25 PM CDT 9:48 AM CDT
Length of Visible Light 15h 10m
Length of Day
14h 11m
Waning Gibbous, 88% of the Moon is Illuminated
Jul 25
Waning Gibbous
Jul 29
Last Quarter
Aug 6
New
Aug 14
First Quarter
Aug 20
Full

Hourly Weather History & Observations

Time (CDT) Temp. Heat Index Dew Point Humidity Pressure Visibility Wind Dir Wind Speed Gust Speed Precip Events Conditions
12:53 AM 69.1 °F - 69.1 °F 100% 30.01 in 6.0 mi Calm Calm - N/A   Clear
1:53 AM 69.1 °F - 69.1 °F 100% 30.01 in 7.0 mi Calm Calm - N/A   Clear
2:53 AM 68.0 °F - 68.0 °F 100% 30.02 in 7.0 mi Calm Calm - N/A   Clear
3:53 AM 68.0 °F - 68.0 °F 100% 30.02 in 6.0 mi Calm Calm - N/A   Clear
4:22 AM 66.2 °F - 66.2 °F 100% 30.05 in 1.8 mi Calm Calm - N/A   Clear
4:32 AM 66.2 °F - 66.2 °F 100% 30.05 in 3.0 mi North 3.5 mph - 0.01 in   Clear
4:53 AM 66.9 °F - 66.9 °F 100% 30.02 in 6.0 mi Calm Calm - 0.01 in   Clear
5:53 AM 66.9 °F - 66.9 °F 100% 30.03 in 6.0 mi Calm Calm - N/A   Clear
6:53 AM 68.0 °F - 66.9 °F 96% 30.04 in 4.0 mi Calm Calm - N/A   Clear
7:53 AM 69.1 °F - 69.1 °F 100% 30.04 in 5.0 mi Calm Calm - N/A   Clear
8:53 AM 73.9 °F - 71.1 °F 91% 30.06 in 10.0 mi Calm Calm - N/A   Clear
9:53 AM 77.0 °F - 70.0 °F 79% 30.06 in 10.0 mi Calm Calm - N/A   Clear
10:53 AM 79.0 °F - 66.9 °F 66% 30.05 in 10.0 mi SE 4.6 mph - N/A   Clear
11:53 AM 81.0 °F 83.8 °F 68.0 °F 65% 30.07 in 10.0 mi SSW 5.8 mph - N/A   Clear
12:53 PM 86.0 °F 90.7 °F 70.0 °F 59% 30.07 in 10.0 mi SW 4.6 mph - N/A   Clear
1:53 PM 84.9 °F 88.2 °F 68.0 °F 57% 30.04 in 10.0 mi Variable 6.9 mph - N/A   Clear
2:53 PM 84.9 °F 87.6 °F 66.9 °F 55% 30.04 in 10.0 mi South 6.9 mph 16.1 mph N/A   Clear
3:53 PM 84.9 °F 88.2 °F 68.0 °F 57% 30.04 in 10.0 mi SSW 6.9 mph - N/A   Clear
4:53 PM 87.1 °F 90.6 °F 68.0 °F 53% 30.03 in 10.0 mi South 8.1 mph - N/A   Clear
5:53 PM 84.0 °F 86.5 °F 66.9 °F 56% 30.00 in 10.0 mi ESE 6.9 mph - N/A   Clear
6:53 PM 82.0 °F 84.9 °F 68.0 °F 62% 30.00 in 10.0 mi SE 3.5 mph - N/A   Clear
7:53 PM 80.1 °F 82.7 °F 68.0 °F 67% 29.99 in 10.0 mi SE 4.6 mph - N/A   Scattered Clouds
8:53 PM 77.0 °F - 71.1 °F 82% 30.00 in 10.0 mi Calm Calm - N/A   Partly Cloudy
9:53 PM 73.9 °F - 72.0 °F 93% 30.00 in 10.0 mi Calm Calm - 0.00 in   Partly Cloudy
10:53 PM 73.9 °F - 73.0 °F 97% 29.99 in 10.0 mi Calm Calm - N/A   Clear
11:53 PM 73.9 °F - 72.0 °F 93% 29.99 in 10.0 mi Calm Calm - N/A   Clear